Wind_Speed
10 16 17 20 24 20 24 25 25 25 25 30 35 40 37 29 29 23 25 19 15 12 11 8 8 9 10 13 9 10 12 13 9 10 8 9 13 15 15 15 15 15 15 14 16 16 15 15 15
7 13 18 17 18 22 26 27 25 26 28 30 36 40 38 30 27 24 24 19 13 13 12 9 8 5 6 8 9 10 10 10 12 11 10 11 13 14 15 16 16 17 18 19 20 19 18 17 17
8 15 18 19 20 24 24 25 25 26 28 32 36 38 37 32 28 23 24 19 15 14 14 13 10 7 7 11 13 14 13 10 9 11 13 13 13 15 16 17 17 18 20 23 26 20 19 18 19
14 13 16 18 20 22 22 23 24 27 28 31 33 35 35 33 28 26 21 16 14 15 16 13 8 7 6 11 16 13 11 9 7 8 12 13 14 13 16 17 16 16 21 21 20 18 18 18 19
13 13 16 18 19 20 20 21 23 24 26 27 30 35 31 31 27 25 17 17 15 15 13 12 10 8 10 12 10 11 10 8 10 13 13 13 14 19 17 15 17 20 19 14 15 18 19 20 20
11 12 12 15 19 20 20 22 23 25 27 28 29 28 29 28 23 20 20 17 14 15 12 12 11 10 12 11 9 10 11 9 14 14 13 15 13 11 12 12 12 14 11 12 15 18 19 22 25
11 14 16 17 18 20 20 23 22 22 24 25 25 25 28 25 22 22 20 17 15 14 10 11 13 10 11 7 10 10 6 6 9 9 8 10 8 5 3 6 7 8 9 11 12 14 15 14 16
13 17 16 17 17 19 21 24 25 23 24 25 24 26 28 24 21 20 19 17 15 13 8 9 14 15 14 11 10 11 10 10 10 7 9 3 9 5 7 7 9 13 11 14 15 14 15 17 18
15 17 20 18 19 20 22 23 24 24 22 24 27 26 27 23 21 19 19 17 16 14 9 10 13 16 14 11 12 13 9 11 10 9 8 6 5 7 8 9 9 11 12 13 13 14 17 19 21
19 19 21 22 20 19 20 22 25 26 20 25 28 29 25 22 21 19 19 17 16 14 11 13 13 12 14 14 13 14 9 8 8 7 8 8 2 5 5 9 8 8 9 11 12 13 14 15 17
20 20 20 21 20 20 20 21 25 24 21 24 29 29 25 22 20 18 18 16 16 14 13 13 12 9 13 15 14 13 12 13 9 5 3 4 6 6 8 7 9 10 12 14 14 16 19 21 22
21 22 23 21 22 21 20 19 21 23 21 26 28 29 26 22 19 17 17 16 16 16 15 12 11 10 12 12 15 14 13 11 8 4 6 6 8 8 9 10 10 12 14 16 19 21 21 21 22
22 24 25 24 23 21 22 19 19 19 21 25 27 26 26 22 19 17 18 16 15 16 15 13 10 12 9 9 12 14 13 9 6 5 6 4 4 6 9 9 10 13 15 17 20 21 22 23 25
25 27 27 27 27 25 26 24 19 19 20 24 25 25 26 21 17 17 17 15 15 15 15 11 10 9 6 6 10 11 11 9 5 8 7 2 3 7 8 9 12 15 17 18 20 21 22 24 25
27 26 29 30 29 28 30 26 19 16 18 21 24 25 24 20 15 17 16 13 14 13 13 12 11 10 9 8 9 9 9 10 7 8 7 4 4 5 9 13 16 18 19 20 22 23 24 25 27
28 29 29 33 32 31 34 27 23 18 19 23 22 24 22 20 15 16 15 13 13 12 12 13 12 12 11 10 9 11 11 10 9 6 6 6 7 9 12 15 19 20 20 21 23 24 25 25 26
33 34 31 32 34 36 38 35 30 25 23 24 21 22 21 22 17 19 17 13 13 13 13 14 14 15 13 12 12 10 10 11 10 10 9 8 10 13 15 18 20 20 20 21 22 24 27 28 30
38 36 33 31 35 41 43 41 36 32 27 26 23 22 22 21 18 19 17 14 13 14 15 15 16 17 16 14 14 14 11 11 12 12 12 12 13 15 19 20 20 20 21 22 25 26 29 33 36
43 41 38 31 34 43 43 45 43 37 32 28 26 25 22 22 19 18 19 16 15 15 15 16 18 18 17 16 15 16 15 14 15 16 16 17 18 19 22 22 20 20 22 23 26 28 31 34 37
46 46 41 39 39 43 45 46 46 41 36 33 25 25 23 22 20 21 23 20 16 16 16 17 20 19 19 20 18 18 16 16 18 19 21 21 21 22 22 24 21 21 23 25 27 30 34 37 39
43 45 44 46 44 48 49 52 51 45 39 34 29 25 21 22 21 23 23 17 18 19 19 19 21 20 21 23 21 19 19 19 18 22 23 24 23 23 23 22 22 23 25 27 29 32 36 39 41
36 40 47 50 51 52 49 56 52 48 44 36 30 24 22 24 23 22 26 27 20 22 20 21 22 21 22 22 22 19 19 21 22 19 21 22 24 22 21 23 23 25 26 29 31 34 38 42 44
32 33 38 44 50 52 52 54 52 46 40 35 30 29 27 27 24 23 28 30 22 19 22 22 23 23 23 23 21 19 19 20 22 20 18 22 22 21 22 25 26 26 28 29 32 36 40 44 45
38 37 38 39 42 47 44 44 48 42 35 32 32 31 27 28 29 26 31 30 22 22 22 24 25 24 24 23 21 20 20 21 23 23 21 22 22 23 23 26 28 29 30 31 34 37 40 44 47
39 39 41 43 43 44 40 42 43 39 36 32 32 33 30 32 35 30 36 31 26 23 22 26 26 26 25 24 22 21 20 21 22 24 22 24 26 25 26 28 30 31 31 33 35 39 42 46 48
41 42 45 48 47 44 42 45 41 35 34 34 32 32 34 34 34 28 31 30 28 28 25 27 28 28 26 24 23 22 21 22 22 23 24 24 26 27 28 30 31 33 33 35 37 40 45 48 50
38 41 40 48 49 52 50 46 39 32 31 32 31 31 32 31 27 22 30 30 28 27 25 28 28 27 27 26 23 23 22 23 24 24 25 26 26 28 29 32 34 35 36 38 39 42 47 50 53
40 42 41 41 49 52 52 51 41 30 31 28 30 28 27 26 26 27 30 26 27 25 25 27 27 27 27 26 25 23 23 23 24 25 26 28 28 29 32 33 37 39 39 40 43 45 49 53 55
42 44 46 49 50 51 52 51 41 28 31 29 25 26 23 25 31 30 31 23 26 24 24 26 27 27 26 27 27 24 22 23 24 26 27 29 30 33 35 38 41 41 43 45 47 49 51 55 53
45 45 45 51 51 48 50 54 40 32 32 27 21 24 30 26 32 32 21 29 26 27 26 27 27 25 27 28 27 24 24 25 26 27 29 31 34 35 39 42 44 45 46 48 51 53 54 54 54
Wind_Direction
14 15 19 29 24 27 26 22 18 12 2 0 358 7 9 3 351 354 347 343 346 346 338 350 17 27 351 359 351 347 326 339 325 305 286 311 316 313 306 300 294 294 291 285 278 274 271 271 272
357 8 21 21 17 22 24 22 18 10 3 359 359 1 3 354 350 350 340 339 349 340 343 350 354 10 353 353 336 327 327 320 329 318 302 277 289 302 304 301 294 292 291 291 283 279 278 277 277
13 12 13 13 25 18 18 14 10 7 2 357 357 353 355 348 346 342 340 343 341 344 352 352 339 347 338 344 338 341 311 304 298 292 299 293 283 296 297 294 287 291 296 293 284 281 278 279 279
14 7 13 11 17 16 13 5 5 360 357 353 350 347 347 343 342 342 341 341 345 347 357 351 345 331 320 329 320 325 328 301 285 290 292 298 298 286 286 298 301 281 295 288 284 285 282 281 280
7 1 4 0 11 13 4 2 359 355 346 346 344 339 340 335 333 340 344 345 347 350 351 4 15 350 308 306 311 323 330 308 326 325 321 311 302 297 294 298 305 307 299 296 290 286 284 284 287
352 345 354 352 1 4 1 352 359 357 348 343 341 338 333 331 334 340 338 345 348 353 349 358 356 352 357 347 322 320 322 306 317 322 318 312 293 279 294 300 308 306 315 316 294 293 294 298 297
338 338 342 349 351 352 353 346 351 353 348 344 337 331 331 335 335 340 345 344 351 1 357 11 16 12 7 18 354 346 342 339 344 330 347 354 348 319 313 312 321 329 335 332 326 320 318 319 320
329 328 337 340 338 339 350 351 349 343 346 340 335 331 332 334 339 343 342 340 348 354 354 8 4 344 342 342 343 335 330 329 328 311 316 353 0 358 349 330 323 321 325 319 321 321 316 316 314
316 320 327 331 330 340 347 347 345 342 338 337 333 331 337 335 342 343 338 340 343 349 336 332 339 343 344 333 326 322 310 309 303 304 275 274 352 337 350 323 311 322 324 316 319 319 316 312 307
312 318 323 323 326 332 336 342 345 339 337 337 333 332 336 334 340 337 336 341 340 344 337 325 330 348 359 354 352 339 312 298 305 295 286 283 8 324 314 326 340 346 335 334 340 334 325 321 320
305 310 312 314 319 321 328 338 341 335 326 333 333 333 335 333 332 335 336 339 336 336 332 330 337 349 347 345 345 338 323 312 311 298 283 319 323 320 326 346 349 350 342 344 341 333 330 328 327
299 300 302 308 311 312 315 328 332 334 325 329 336 331 330 326 324 334 336 333 331 328 323 327 332 331 337 352 356 355 335 320 295 264 295 318 345 338 343 347 345 343 340 342 339 334 326 322 323
287 289 294 301 305 305 308 319 323 333 328 324 332 329 324 320 325 327 331 327 322 320 321 327 332 322 337 8 359 3 358 354 335 301 283 305 333 338 340 338 337 338 338 333 329 327 325 326 328
284 288 293 298 304 308 305 314 322 328 329 317 323 327 327 323 317 322 327 318 315 315 313 318 327 330 344 359 356 358 355 3 356 315 316 327 303 322 328 332 329 324 327 327 324 324 325 325 326
281 284 290 293 299 301 300 314 317 313 322 312 317 323 326 317 316 315 319 308 305 305 308 316 322 323 332 345 352 356 341 342 346 327 330 327 317 336 330 324 319 321 325 323 325 327 325 324 323
274 277 280 289 293 294 295 303 304 302 316 314 309 319 326 313 311 309 312 305 301 301 302 304 312 316 319 319 333 341 343 331 324 316 309 312 324 321 316 317 319 323 323 321 322 322 321 322 324
273 274 279 285 289 290 290 295 299 301 309 311 310 315 320 317 305 306 308 302 301 300 292 297 308 311 308 317 314 319 326 322 308 297 295 296 306 311 315 323 321 313 311 313 316 322 323 326 326
268 274 276 280 285 286 287 290 294 300 303 309 308 307 313 317 302 304 306 299 295 291 288 295 304 306 304 303 308 308 295 298 297 293 292 290 297 305 309 315 309 304 308 313 317 323 328 331 330
269 270 272 278 279 278 284 289 294 295 300 304 305 306 307 313 297 293 298 299 290 286 288 287 298 304 303 300 300 297 293 284 286 288 289 292 295 300 302 304 299 300 309 316 317 324 328 328 328
270 272 274 274 276 276 279 283 284 288 295 297 305 304 299 302 295 286 293 295 289 283 284 284 293 299 303 307 305 295 288 285 287 288 288 288 293 296 297 297 294 302 310 314 318 325 326 326 326
275 276 275 273 272 274 277 277 281 285 290 294 308 301 292 289 285 278 284 289 288 278 280 281 289 294 300 307 309 300 291 285 285 287 286 288 290 294 296 292 299 306 308 314 322 324 324 325 326
281 276 275 275 274 275 274 278 278 287 289 300 303 294 284 283 285 278 286 290 283 275 280 280 287 289 296 303 306 301 296 293 286 279 284 286 290 291 291 296 300 303 312 318 320 322 323 325 326
296 291 286 282 280 278 276 280 285 283 293 298 291 280 273 273 280 269 274 275 285 273 275 282 282 285 291 301 300 298 295 292 289 290 290 289 286 285 293 297 303 306 310 316 318 320 323 324 325
291 293 292 288 285 283 285 284 282 287 288 282 277 274 272 268 268 268 267 271 270 266 270 276 280 283 289 293 293 293 292 291 290 292 293 288 286 289 294 299 301 305 308 312 315 318 320 322 323
295 294 293 289 288 293 288 278 280 282 283 279 272 270 268 266 270 273 259 264 253 260 268 274 279 283 286 288 288 288 289 287 288 290 290 288 290 291 294 295 298 301 305 309 313 317 319 321 322
293 296 295 297 295 292 282 284 288 289 285 282 276 278 277 273 273 272 251 253 255 263 269 272 277 283 285 285 284 284 283 282 283 287 286 286 286 288 294 296 298 299 303 307 312 315 318 318 319
295 299 296 294 295 293 293 288 287 300 291 283 282 280 276 270 265 248 249 249 265 261 263 269 278 283 283 281 278 277 278 278 281 284 285 286 287 290 295 297 298 302 304 305 309 312 312 316 318
293 292 292 294 291 290 290 294 295 295 289 285 282 273 261 253 251 246 252 250 252 259 265 272 275 278 279 279 277 275 277 278 281 285 289 292 295 293 296 299 300 300 300 303 307 309 313 315 318
287 289 294 292 289 292 293 289 294 287 283 284 282 268 242 247 250 251 252 246 251 257 270 272 276 279 277 275 275 277 280 281 283 284 287 290 293 295 300 302 301 301 301 303 303 307 311 313 318
282 288 294 292 293 287 285 283 295 282 277 283 274 256 245 251 227 237 248 242 246 256 273 279 280 282 276 277 276 276 281 283 283 285 290 293 293 299 302 302 301 302 301 299 301 304 308 315 319
Height
5907 5906 5906 5907 5909 5905 5903 5901 5896 5893 5892 5889 5886 5884 5881 5880 5878 5878 5874 5872 5870 5868 5867 5863 5861 5858 5857 5855 5855 5854 5853 5852 5851 5850 5851 5851 5852 5852 5852 5852 5852 5851 5852 5852 5853 5854 5854 5854 5854
5908 5908 5909 5909 5908 5905 5903 5899 5896 5894 5891 5888 5885 5882 5881 5880 5878 5876 5874 5872 5869 5868 5866 5862 5858 5858 5857 5855 5853 5852 5851 5851 5851 5850 5850 5849 5850 5850 5850 5849 5849 5849 5849 5850 5850 5851 5852 5852 5852
5910 5909 5910 5909 5907 5904 5904 5901 5896 5893 5890 5887 5883 5882 5882 5880 5878 5875 5873 5870 5868 5866 5863 5860 5858 5857 5856 5855 5854 5852 5851 5850 5849 5849 5848 5847 5847 5848 5847 5847 5847 5847 5846 5846 5846 5848 5849 5850 5849
5911 5910 5912 5910 5907 5906 5903 5900 5895 5892 5890 5887 5884 5883 5882 5879 5877 5874 5871 5869 5867 5865 5861 5858 5857 5856 5854 5853 5853 5852 5849 5849 5848 5847 5846 5846 5846 5845 5845 5845 5845 5845 5844 5841 5841 5843 5844 5845 5846
5911 5910 5911 5909 5908 5906 5903 5899 5895 5893 5891 5888 5886 5884 5881 5878 5876 5873 5871 5869 5866 5863 5861 5859 5856 5854 5852 5851 5850 5849 5849 5849 5848 5846 5846 5845 5843 5843 5843 5843 5842 5842 5841 5840 5840 5840 5840 5842 5842
5910 5910 5911 5909 5907 5905 5902 5900 5897 5894 5891 5888 5885 5883 5881 5877 5875 5872 5870 5867 5865 5863 5860 5857 5854 5853 5852 5850 5849 5848 5847 5847 5847 5845 5843 5842 5841 5840 5841 5841 5840 5840 5839 5839 5840 5840 5839 5839 5840
5909 5909 5908 5907 5906 5903 5901 5899 5896 5893 5890 5887 5885 5882 5880 5875 5873 5870 5868 5866 5863 5862 5859 5856 5854 5853 5852 5850 5848 5847 5846 5845 5845 5844 5843 5842 5841 5840 5839 5840 5840 5839 5838 5838 5838 5838 5837 5837 5836
5908 5907 5907 5905 5905 5903 5900 5897 5895 5893 5889 5886 5883 5880 5877 5873 5871 5869 5867 5865 5862 5861 5859 5856 5855 5854 5852 5852 5849 5848 5846 5845 5844 5843 5842 5841 5841 5840 5840 5839 5839 5838 5837 5838 5837 5836 5836 5835 5835
5908 5906 5904 5905 5902 5901 5898 5896 5894 5890 5888 5885 5880 5878 5875 5871 5869 5867 5865 5863 5861 5860 5858 5856 5855 5853 5850 5848 5847 5846 5845 5843 5841 5841 5841 5840 5841 5840 5838 5838 5838 5837 5837 5837 5836 5835 5834 5833 5832
5906 5906 5904 5903 5901 5900 5898 5896 5893 5890 5886 5883 5878 5876 5873 5870 5867 5866 5864 5862 5859 5858 5857 5856 5854 5851 5849 5847 5845 5844 5842 5841 5839 5838 5839 5838 5839 5839 5838 5837 5837 5837 5836 5835 5835 5834 5833 5831 5829
5903 5903 5903 5902 5900 5898 5897 5894 5891 5888 5884 5882 5878 5873 5870 5868 5866 5865 5862 5860 5858 5857 5856 5854 5852 5849 5848 5846 5843 5841 5841 5840 5839 5837 5837 5838 5839 5839 5838 5837 5836 5835 5834 5833 5833 5832 5830 5827 5826
5901 5900 5899 5899 5897 5896 5894 5892 5891 5888 5884 5880 5877 5872 5868 5866 5865 5863 5860 5858 5857 5855 5854 5852 5851 5849 5846 5844 5842 5839 5838 5837 5837 5835 5835 5836 5837 5837 5835 5834 5834 5833 5832 5831 5830 5828 5827 5825 5823
5898 5897 5896 5895 5895 5893 5891 5890 5887 5885 5881 5878 5876 5872 5868 5865 5863 5861 5858 5856 5855 5854 5852 5850 5849 5848 5846 5843 5842 5839 5837 5836 5837 5836 5834 5833 5834 5835 5834 5833 5833 5832 5832 5830 5829 5826 5823 5821 5818
5895 5892 5892 5890 5889 5888 5886 5885 5883 5881 5879 5876 5873 5870 5865 5863 5861 5858 5856 5855 5854 5853 5851 5849 5848 5847 5845 5842 5841 5839 5838 5837 5836 5836 5835 5833 5833 5834 5833 5832 5831 5830 5829 5828 5825 5823 5819 5816 5814
5891 5890 5887 5885 5884 5883 5879 5881 5880 5878 5877 5875 5871 5868 5864 5860 5858 5856 5855 5853 5852 5851 5850 5848 5847 5845 5844 5842 5840 5838 5837 5836 5834 5834 5835 5834 5833 5832 5832 5831 5829 5828 5826 5825 5821 5819 5816 5813 5811
5886 5885 5884 5880 5879 5877 5875 5878 5876 5874 5874 5872 5869 5865 5862 5857 5855 5853 5852 5850 5849 5848 5848 5846 5845 5844 5843 5841 5839 5837 5835 5835 5834 5833 5832 5833 5832 5830 5830 5828 5826 5823 5823 5821 5818 5815 5813 5810 5807
5879 5878 5880 5877 5874 5871 5869 5870 5869 5868 5869 5868 5866 5862 5859 5855 5853 5850 5848 5847 5846 5846 5845 5844 5843 5842 5841 5839 5838 5835 5834 5834 5833 5831 5830 5830 5830 5829 5827 5825 5823 5820 5819 5817 5814 5811 5808 5805 5801
5871 5872 5872 5872 5870 5863 5862 5862 5862 5862 5863 5864 5861 5858 5855 5852 5849 5846 5844 5844 5843 5842 5842 5841 5840 5839 5838 5836 5836 5834 5831 5831 5830 5829 5829 5827 5826 5825 5823 5821 5819 5818 5814 5812 5810 5806 5803 5800 5796
5863 5863 5865 5866 5863 5859 5857 5854 5853 5855 5857 5859 5857 5853 5851 5848 5845 5842 5841 5841 5840 5839 5838 5838 5837 5835 5834 5833 5832 5831 5830 5828 5827 5826 5825 5824 5823 5821 5819 5817 5814 5813 5811 5808 5806 5802 5799 5796 5792
5854 5854 5858 5857 5855 5852 5850 5849 5847 5848 5851 5852 5852 5848 5846 5844 5841 5838 5837 5837 5836 5835 5834 5835 5834 5832 5830 5829 5828 5827 5825 5824 5824 5823 5822 5821 5819 5816 5814 5812 5810 5808 5806 5804 5801 5798 5795 5791 5787
5847 5846 5847 5845 5845 5842 5841 5839 5838 5841 5844 5845 5846 5843 5841 5838 5836 5833 5832 5832 5832 5831 5831 5831 5830 5828 5826 5824 5822 5821 5820 5820 5818 5818 5817 5817 5815 5813 5811 5808 5806 5804 5801 5798 5796 5793 5789 5785 5780
5838 5839 5835 5835 5833 5833 5833 5827 5830 5833 5834 5838 5838 5837 5835 5833 5831 5829 5827 5825 5828 5827 5827 5826 5826 5824 5822 5820 5818 5817 5816 5816 5816 5813 5813 5812 5811 5809 5807 5805 5802 5799 5796 5792 5789 5786 5783 5778 5774
5835 5833 5830 5826 5824 5823 5822 5821 5820 5824 5828 5829 5828 5827 5828 5826 5826 5825 5823 5821 5823 5823 5822 5821 5821 5819 5818 5816 5815 5813 5812 5811 5809 5809 5807 5807 5806 5804 5802 5800 5797 5794 5790 5786 5783 5779 5776 5771 5764
5827 5826 5822 5819 5816 5811 5816 5816 5809 5814 5820 5820 5818 5819 5820 5819 5819 5819 5816 5816 5818 5817 5816 5816 5815 5814 5813 5812 5810 5808 5807 5805 5804 5803 5802 5801 5801 5799 5797 5796 5793 5789 5785 5780 5777 5773 5768 5763 5757
5820 5817 5813 5811 5808 5806 5809 5804 5802 5805 5808 5810 5809 5809 5810 5809 5809 5811 5809 5811 5812 5811 5811 5811 5809 5809 5808 5807 5804 5803 5802 5800 5799 5799 5797 5797 5796 5794 5792 5789 5786 5783 5779 5775 5770 5766 5762 5756 5750
5812 5811 5808 5802 5799 5800 5797 5792 5797 5802 5802 5801 5801 5800 5799 5799 5799 5800 5801 5803 5805 5805 5805 5804 5803 5803 5803 5801 5799 5798 5796 5795 5794 5794 5793 5792 5790 5788 5786 5783 5780 5776 5773 5769 5765 5760 5755 5748 5742
5806 5805 5801 5795 5793 5788 5787 5788 5790 5795 5796 5794 5793 5792 5790 5789 5791 5791 5793 5796 5797 5798 5798 5798 5798 5797 5796 5794 5793 5792 5790 5789 5788 5787 5786 5786 5784 5782 5779 5776 5772 5769 5766 5761 5756 5751 5745 5740 5734
5796 5796 5796 5793 5784 5780 5778 5778 5783 5788 5786 5786 5786 5784 5782 5782 5785 5785 5788 5789 5790 5791 5792 5792 5791 5790 5788 5788 5787 5786 5784 5784 5783 5782 5780 5779 5777 5775 5771 5768 5765 5761 5756 5752 5747 5741 5737 5731 5724
5789 5787 5788 5785 5782 5776 5771 5769 5777 5781 5778 5778 5778 5776 5776 5776 5777 5779 5782 5783 5785 5785 5786 5785 5784 5783 5782 5781 5781 5779 5778 5777 5777 5775 5773 5771 5768 5765 5764 5760 5756 5751 5748 5743 5738 5732 5726 5719 5713
5781 5781 5780 5775 5773 5769 5764 5758 5770 5773 5771 5772 5772 5770 5770 5769 5769 5773 5775 5776 5778 5779 5779 5777 5777 5777 5776 5775 5775 5774 5772 5770 5770 5769 5767 5764 5761 5758 5754 5751 5746 5742 5737 5732 5726 5719 5714 5709 5704